| State | Nebraska | Latest | Poor (1110 cfs) | |
| River | Niobrara River | Rating | Observed | Estimated |
| Updated | 2026-05-10 6:15 (22 minutes ago) | Flood - The river is flooding. Obstacles can be treacherous or deadly. The river should be avoided at this stage for casual trips and definitely for the inexperienced. Trips should be attempted only with protective gear and equipment.Flood | (none) | 3836 |
| Discharge | 1110 cfs (median: 2200 cfs) | High - The river is high and potentially dangerous, especially for the young and / or inexperienced. Normal stream obstacles are sometimes difficult to navigate. Extended distances can be attempted, but canoe travel may not be advisable.High | (none) | 2103 |
| Height | 3.45 feet | Good - Conditions are ideal for a canoe or kayak. Boats typically will drag on fewer than one-quarter of riffles, if at all, and portages are unnecessary or rare. Normal float lengths can be attempted without a problem.Good | (none) | 1825 |
| Trend | Rising (rising over 24 hours) | Low - River is low but can still be floated. Some riffles are okay but most come with significant dragging and might need a portage. Float lengths should be reduced to accommodate low flow, dragging, and portages.Low | (none) | 1325 |
| USGS | USGS Site ( Duck Duck Go Maps) | Poor - River is too low to float comfortably. Most or all riffles will drag or must be portaged and some obstacles (such as slick shelf rock) cause undue problems. Avoid the river at this stage for casual paddling trips.Poor | (none) | 741 |
| Date | Start | End | Distance | Condition | Discharge | Height | Fishing | Details |
|---|
A total of 0 rows are displayed.
BLG - Bluegill
CCF - Channel Catfish
CP - Chain Pickerel
FWD - Freshwater Drum
GSF - Green Sunfish
KSB - Kentucky Spotted Bass
LMB - Largemouth Bass
LSF - Longear Sunfish
RB - Rock Bass / Goggle Eye
RSF - Redear Sunfish
RT - Rainbow Trout
SMB - Smallmouth Bass
WB - White Bass
WF - Whitefish
WL - WalleyeThe classic River Trips application is still available for use. It is updated with the new system using a data retrofit. It is no longer maintained. The original River Trips application is no longer updated (as of 1 Dec 2016) but can be checked for errors or for the condition of the data before it was converted to the new system.
| Observation | Height | Discharge | Maximum Discharge | Minimum Discharge | Mean Discharge | P05 | P10 | P20 | P25 | P50 (Median) | P75 | P80 | P90 | P95 |
|---|---|---|---|---|---|---|---|---|---|---|---|---|---|---|
| 2026-05-10 06:15 | 3.45 | 1110 | 7590 (1995) | 705 (2009) | 2390 | 1100 | 1260 | 1580 | 1790 | 2200 | 2730 | 3050 | 3750 | 4840 |
| 2026-05-10 05:15 | 3.44 | 1080 | 7590 (1995) | 705 (2009) | 2390 | 1100 | 1260 | 1580 | 1790 | 2200 | 2730 | 3050 | 3750 | 4840 |
| 2026-05-10 04:15 | 3.43 | 1060 | 7590 (1995) | 705 (2009) | 2390 | 1100 | 1260 | 1580 | 1790 | 2200 | 2730 | 3050 | 3750 | 4840 |
| 2026-05-10 03:15 | 3.41 | 1020 | 7590 (1995) | 705 (2009) | 2390 | 1100 | 1260 | 1580 | 1790 | 2200 | 2730 | 3050 | 3750 | 4840 |
| 2026-05-10 02:15 | 3.40 | 993 | 7590 (1995) | 705 (2009) | 2390 | 1100 | 1260 | 1580 | 1790 | 2200 | 2730 | 3050 | 3750 | 4840 |
| 2026-05-10 01:15 | 3.40 | 993 | 7590 (1995) | 705 (2009) | 2390 | 1100 | 1260 | 1580 | 1790 | 2200 | 2730 | 3050 | 3750 | 4840 |
| 2026-05-10 00:15 | 3.40 | 993 | 7590 (1995) | 705 (2009) | 2390 | 1100 | 1260 | 1580 | 1790 | 2200 | 2730 | 3050 | 3750 | 4840 |
| 2026-05-09 23:15 | 3.42 | 1040 | 7590 (1995) | 705 (2009) | 2390 | 1100 | 1260 | 1580 | 1790 | 2200 | 2730 | 3050 | 3750 | 4840 |
| 2026-05-09 22:15 | 3.42 | 1040 | 6350 (2019) | 902 (2009) | 2370 | 1190 | 1320 | 1510 | 1710 | 2100 | 2640 | 2900 | 3800 | 5010 |
| 2026-05-09 21:15 | 3.45 | 1110 | 6350 (2019) | 902 (2009) | 2370 | 1190 | 1320 | 1510 | 1710 | 2100 | 2640 | 2900 | 3800 | 5010 |
| 2026-05-09 20:15 | 3.46 | 1130 | 6350 (2019) | 902 (2009) | 2370 | 1190 | 1320 | 1510 | 1710 | 2100 | 2640 | 2900 | 3800 | 5010 |
| 2026-05-09 19:15 | 3.46 | 1130 | 6350 (2019) | 902 (2009) | 2370 | 1190 | 1320 | 1510 | 1710 | 2100 | 2640 | 2900 | 3800 | 5010 |
| 2026-05-09 18:15 | 3.50 | 1230 | 6350 (2019) | 902 (2009) | 2370 | 1190 | 1320 | 1510 | 1710 | 2100 | 2640 | 2900 | 3800 | 5010 |
| 2026-05-09 17:15 | 3.50 | 1230 | 6350 (2019) | 902 (2009) | 2370 | 1190 | 1320 | 1510 | 1710 | 2100 | 2640 | 2900 | 3800 | 5010 |
| 2026-05-09 16:15 | 3.49 | 1210 | 6350 (2019) | 902 (2009) | 2370 | 1190 | 1320 | 1510 | 1710 | 2100 | 2640 | 2900 | 3800 | 5010 |
| 2026-05-09 15:15 | 3.51 | 1260 | 6350 (2019) | 902 (2009) | 2370 | 1190 | 1320 | 1510 | 1710 | 2100 | 2640 | 2900 | 3800 | 5010 |
| 2026-05-09 14:15 | 3.50 | 1230 | 6350 (2019) | 902 (2009) | 2370 | 1190 | 1320 | 1510 | 1710 | 2100 | 2640 | 2900 | 3800 | 5010 |
| 2026-05-09 13:15 | 3.49 | 1210 | 6350 (2019) | 902 (2009) | 2370 | 1190 | 1320 | 1510 | 1710 | 2100 | 2640 | 2900 | 3800 | 5010 |
| 2026-05-09 12:15 | 3.48 | 1180 | 6350 (2019) | 902 (2009) | 2370 | 1190 | 1320 | 1510 | 1710 | 2100 | 2640 | 2900 | 3800 | 5010 |
| 2026-05-09 11:15 | 3.46 | 1130 | 6350 (2019) | 902 (2009) | 2370 | 1190 | 1320 | 1510 | 1710 | 2100 | 2640 | 2900 | 3800 | 5010 |
| 2026-05-09 10:15 | 3.46 | 1130 | 6350 (2019) | 902 (2009) | 2370 | 1190 | 1320 | 1510 | 1710 | 2100 | 2640 | 2900 | 3800 | 5010 |
| 2026-05-09 09:15 | 3.45 | 1110 | 6350 (2019) | 902 (2009) | 2370 | 1190 | 1320 | 1510 | 1710 | 2100 | 2640 | 2900 | 3800 | 5010 |
| 2026-05-09 08:15 | 3.44 | 1080 | 6350 (2019) | 902 (2009) | 2370 | 1190 | 1320 | 1510 | 1710 | 2100 | 2640 | 2900 | 3800 | 5010 |
| 2026-05-09 07:15 | 3.45 | 1110 | 6350 (2019) | 902 (2009) | 2370 | 1190 | 1320 | 1510 | 1710 | 2100 | 2640 | 2900 | 3800 | 5010 |
| 2026-05-09 06:15 | 3.44 | 1080 | 6350 (2019) | 902 (2009) | 2370 | 1190 | 1320 | 1510 | 1710 | 2100 | 2640 | 2900 | 3800 | 5010 |
| 2026-05-09 05:15 | 3.41 | 1020 | 6350 (2019) | 902 (2009) | 2370 | 1190 | 1320 | 1510 | 1710 | 2100 | 2640 | 2900 | 3800 | 5010 |
| 2026-05-09 04:15 | 3.41 | 1020 | 6350 (2019) | 902 (2009) | 2370 | 1190 | 1320 | 1510 | 1710 | 2100 | 2640 | 2900 | 3800 | 5010 |
| 2026-05-09 03:15 | 3.43 | 1060 | 6350 (2019) | 902 (2009) | 2370 | 1190 | 1320 | 1510 | 1710 | 2100 | 2640 | 2900 | 3800 | 5010 |
| 2026-05-09 02:15 | 3.43 | 1060 | 6350 (2019) | 902 (2009) | 2370 | 1190 | 1320 | 1510 | 1710 | 2100 | 2640 | 2900 | 3800 | 5010 |
| 2026-05-09 01:15 | 3.45 | 1110 | 6350 (2019) | 902 (2009) | 2370 | 1190 | 1320 | 1510 | 1710 | 2100 | 2640 | 2900 | 3800 | 5010 |
| 2026-05-09 00:15 | 3.46 | 1130 | 6350 (2019) | 902 (2009) | 2370 | 1190 | 1320 | 1510 | 1710 | 2100 | 2640 | 2900 | 3800 | 5010 |
| 2026-05-08 23:15 | 3.48 | 1180 | 6350 (2019) | 902 (2009) | 2370 | 1190 | 1320 | 1510 | 1710 | 2100 | 2640 | 2900 | 3800 | 5010 |
| 2026-05-08 22:15 | 3.52 | 1290 | 5870 (1995) | 927 (2009) | 2320 | 1100 | 1260 | 1380 | 1490 | 2180 | 2700 | 2820 | 3970 | 4590 |
| 2026-05-08 21:15 | 3.55 | 1370 | 5870 (1995) | 927 (2009) | 2320 | 1100 | 1260 | 1380 | 1490 | 2180 | 2700 | 2820 | 3970 | 4590 |
| 2026-05-08 20:15 | 3.54 | 1340 | 5870 (1995) | 927 (2009) | 2320 | 1100 | 1260 | 1380 | 1490 | 2180 | 2700 | 2820 | 3970 | 4590 |
| 2026-05-08 19:15 | 3.54 | 1340 | 5870 (1995) | 927 (2009) | 2320 | 1100 | 1260 | 1380 | 1490 | 2180 | 2700 | 2820 | 3970 | 4590 |
| 2026-05-08 18:15 | 3.54 | 1340 | 5870 (1995) | 927 (2009) | 2320 | 1100 | 1260 | 1380 | 1490 | 2180 | 2700 | 2820 | 3970 | 4590 |
| 2026-05-08 17:15 | 3.54 | 1340 | 5870 (1995) | 927 (2009) | 2320 | 1100 | 1260 | 1380 | 1490 | 2180 | 2700 | 2820 | 3970 | 4590 |
| 2026-05-08 16:15 | 3.55 | 1370 | 5870 (1995) | 927 (2009) | 2320 | 1100 | 1260 | 1380 | 1490 | 2180 | 2700 | 2820 | 3970 | 4590 |
| 2026-05-08 15:15 | 3.53 | 1320 | 5870 (1995) | 927 (2009) | 2320 | 1100 | 1260 | 1380 | 1490 | 2180 | 2700 | 2820 | 3970 | 4590 |
| 2026-05-08 14:15 | 3.53 | 1320 | 5870 (1995) | 927 (2009) | 2320 | 1100 | 1260 | 1380 | 1490 | 2180 | 2700 | 2820 | 3970 | 4590 |
| 2026-05-08 13:15 | 3.55 | 1370 | 5870 (1995) | 927 (2009) | 2320 | 1100 | 1260 | 1380 | 1490 | 2180 | 2700 | 2820 | 3970 | 4590 |
| 2026-05-08 12:15 | 3.55 | 1370 | 5870 (1995) | 927 (2009) | 2320 | 1100 | 1260 | 1380 | 1490 | 2180 | 2700 | 2820 | 3970 | 4590 |
| 2026-05-08 11:15 | 3.56 | 1400 | 5870 (1995) | 927 (2009) | 2320 | 1100 | 1260 | 1380 | 1490 | 2180 | 2700 | 2820 | 3970 | 4590 |
| 2026-05-08 10:15 | 3.59 | 1490 | 5870 (1995) | 927 (2009) | 2320 | 1100 | 1260 | 1380 | 1490 | 2180 | 2700 | 2820 | 3970 | 4590 |
| 2026-05-08 09:15 | 3.57 | 1430 | 5870 (1995) | 927 (2009) | 2320 | 1100 | 1260 | 1380 | 1490 | 2180 | 2700 | 2820 | 3970 | 4590 |
| 2026-05-08 08:15 | 3.55 | 1370 | 5870 (1995) | 927 (2009) | 2320 | 1100 | 1260 | 1380 | 1490 | 2180 | 2700 | 2820 | 3970 | 4590 |
| 2026-05-08 07:15 | 3.53 | 1320 | 5870 (1995) | 927 (2009) | 2320 | 1100 | 1260 | 1380 | 1490 | 2180 | 2700 | 2820 | 3970 | 4590 |
| 2026-05-08 06:15 | 3.53 | 1320 | 5870 (1995) | 927 (2009) | 2320 | 1100 | 1260 | 1380 | 1490 | 2180 | 2700 | 2820 | 3970 | 4590 |
| 2026-05-08 05:15 | 3.51 | 1260 | 5870 (1995) | 927 (2009) | 2320 | 1100 | 1260 | 1380 | 1490 | 2180 | 2700 | 2820 | 3970 | 4590 |
| 2026-05-08 04:15 | 3.53 | 1320 | 5870 (1995) | 927 (2009) | 2320 | 1100 | 1260 | 1380 | 1490 | 2180 | 2700 | 2820 | 3970 | 4590 |
| 2026-05-08 03:15 | 3.54 | 1340 | 5870 (1995) | 927 (2009) | 2320 | 1100 | 1260 | 1380 | 1490 | 2180 | 2700 | 2820 | 3970 | 4590 |
| 2026-05-08 02:15 | 3.54 | 1340 | 5870 (1995) | 927 (2009) | 2320 | 1100 | 1260 | 1380 | 1490 | 2180 | 2700 | 2820 | 3970 | 4590 |
| 2026-05-08 01:15 | 3.57 | 1430 | 5870 (1995) | 927 (2009) | 2320 | 1100 | 1260 | 1380 | 1490 | 2180 | 2700 | 2820 | 3970 | 4590 |
| 2026-05-08 00:15 | 3.59 | 1490 | 5870 (1995) | 927 (2009) | 2320 | 1100 | 1260 | 1380 | 1490 | 2180 | 2700 | 2820 | 3970 | 4590 |
| 2026-05-07 23:15 | 3.61 | 1560 | 5870 (1995) | 927 (2009) | 2320 | 1100 | 1260 | 1380 | 1490 | 2180 | 2700 | 2820 | 3970 | 4590 |
| 2026-05-07 22:15 | 3.63 | 1630 | 7580 (2007) | 995 (2009) | 2370 | 1200 | 1310 | 1480 | 1500 | 2140 | 2750 | 2970 | 3920 | 4970 |
| 2026-05-07 21:15 | 3.65 | 1710 | 7580 (2007) | 995 (2009) | 2370 | 1200 | 1310 | 1480 | 1500 | 2140 | 2750 | 2970 | 3920 | 4970 |
| 2026-05-07 20:15 | 3.67 | 1780 | 7580 (2007) | 995 (2009) | 2370 | 1200 | 1310 | 1480 | 1500 | 2140 | 2750 | 2970 | 3920 | 4970 |
| 2026-05-07 19:15 | 3.66 | 1740 | 7580 (2007) | 995 (2009) | 2370 | 1200 | 1310 | 1480 | 1500 | 2140 | 2750 | 2970 | 3920 | 4970 |
| 2026-05-07 18:15 | 3.65 | 1710 | 7580 (2007) | 995 (2009) | 2370 | 1200 | 1310 | 1480 | 1500 | 2140 | 2750 | 2970 | 3920 | 4970 |
| 2026-05-07 17:15 | 3.65 | 1710 | 7580 (2007) | 995 (2009) | 2370 | 1200 | 1310 | 1480 | 1500 | 2140 | 2750 | 2970 | 3920 | 4970 |
| 2026-05-07 16:15 | 3.65 | 1710 | 7580 (2007) | 995 (2009) | 2370 | 1200 | 1310 | 1480 | 1500 | 2140 | 2750 | 2970 | 3920 | 4970 |
| 2026-05-07 15:15 | 3.65 | 1710 | 7580 (2007) | 995 (2009) | 2370 | 1200 | 1310 | 1480 | 1500 | 2140 | 2750 | 2970 | 3920 | 4970 |
| 2026-05-07 14:15 | 3.65 | 1710 | 7580 (2007) | 995 (2009) | 2370 | 1200 | 1310 | 1480 | 1500 | 2140 | 2750 | 2970 | 3920 | 4970 |
| 2026-05-07 13:15 | 3.65 | 1710 | 7580 (2007) | 995 (2009) | 2370 | 1200 | 1310 | 1480 | 1500 | 2140 | 2750 | 2970 | 3920 | 4970 |
| 2026-05-07 12:15 | 3.63 | 1630 | 7580 (2007) | 995 (2009) | 2370 | 1200 | 1310 | 1480 | 1500 | 2140 | 2750 | 2970 | 3920 | 4970 |
| 2026-05-07 11:15 | 3.63 | 1630 | 7580 (2007) | 995 (2009) | 2370 | 1200 | 1310 | 1480 | 1500 | 2140 | 2750 | 2970 | 3920 | 4970 |
| 2026-05-07 10:15 | 3.63 | 1630 | 7580 (2007) | 995 (2009) | 2370 | 1200 | 1310 | 1480 | 1500 | 2140 | 2750 | 2970 | 3920 | 4970 |
| 2026-05-07 09:15 | 3.62 | 1590 | 7580 (2007) | 995 (2009) | 2370 | 1200 | 1310 | 1480 | 1500 | 2140 | 2750 | 2970 | 3920 | 4970 |
| 2026-05-07 08:15 | 3.60 | 1520 | 7580 (2007) | 995 (2009) | 2370 | 1200 | 1310 | 1480 | 1500 | 2140 | 2750 | 2970 | 3920 | 4970 |
| 2026-05-07 07:15 | 3.56 | 1400 | 7580 (2007) | 995 (2009) | 2370 | 1200 | 1310 | 1480 | 1500 | 2140 | 2750 | 2970 | 3920 | 4970 |
| 2026-05-07 06:15 | 3.56 | 1400 | 7580 (2007) | 995 (2009) | 2370 | 1200 | 1310 | 1480 | 1500 | 2140 | 2750 | 2970 | 3920 | 4970 |
| 2026-05-07 05:15 | 3.59 | 1490 | 7580 (2007) | 995 (2009) | 2370 | 1200 | 1310 | 1480 | 1500 | 2140 | 2750 | 2970 | 3920 | 4970 |
| 2026-05-07 04:15 | 3.59 | 1490 | 7580 (2007) | 995 (2009) | 2370 | 1200 | 1310 | 1480 | 1500 | 2140 | 2750 | 2970 | 3920 | 4970 |
| 2026-05-07 03:15 | 3.61 | 1560 | 7580 (2007) | 995 (2009) | 2370 | 1200 | 1310 | 1480 | 1500 | 2140 | 2750 | 2970 | 3920 | 4970 |
| 2026-05-07 02:15 | 3.62 | 1590 | 7580 (2007) | 995 (2009) | 2370 | 1200 | 1310 | 1480 | 1500 | 2140 | 2750 | 2970 | 3920 | 4970 |
| 2026-05-07 01:15 | 3.63 | 1630 | 7580 (2007) | 995 (2009) | 2370 | 1200 | 1310 | 1480 | 1500 | 2140 | 2750 | 2970 | 3920 | 4970 |
| 2026-05-07 00:15 | 3.64 | 1670 | 7580 (2007) | 995 (2009) | 2370 | 1200 | 1310 | 1480 | 1500 | 2140 | 2750 | 2970 | 3920 | 4970 |
| 2026-05-06 23:15 | 3.65 | 1710 | 7580 (2007) | 995 (2009) | 2370 | 1200 | 1310 | 1480 | 1500 | 2140 | 2750 | 2970 | 3920 | 4970 |
| 2026-05-06 22:15 | 3.65 | 1710 | 6600 (1960) | 1050 (1965) | 2430 | 1210 | 1280 | 1430 | 1520 | 2120 | 2770 | 3030 | 4600 | 5300 |
| 2026-05-06 21:15 | 3.67 | 1780 | 6600 (1960) | 1050 (1965) | 2430 | 1210 | 1280 | 1430 | 1520 | 2120 | 2770 | 3030 | 4600 | 5300 |
| 2026-05-06 20:15 | 3.71 | 1950 | 6600 (1960) | 1050 (1965) | 2430 | 1210 | 1280 | 1430 | 1520 | 2120 | 2770 | 3030 | 4600 | 5300 |
| 2026-05-06 19:15 | 3.75 | 2130 | 6600 (1960) | 1050 (1965) | 2430 | 1210 | 1280 | 1430 | 1520 | 2120 | 2770 | 3030 | 4600 | 5300 |
| 2026-05-06 18:15 | 3.78 | 2270 | 6600 (1960) | 1050 (1965) | 2430 | 1210 | 1280 | 1430 | 1520 | 2120 | 2770 | 3030 | 4600 | 5300 |
| 2026-05-06 17:15 | 3.80 | 2370 | 6600 (1960) | 1050 (1965) | 2430 | 1210 | 1280 | 1430 | 1520 | 2120 | 2770 | 3030 | 4600 | 5300 |
| 2026-05-06 16:15 | 3.80 | 2370 | 6600 (1960) | 1050 (1965) | 2430 | 1210 | 1280 | 1430 | 1520 | 2120 | 2770 | 3030 | 4600 | 5300 |
| 2026-05-06 15:15 | 3.80 | 2370 | 6600 (1960) | 1050 (1965) | 2430 | 1210 | 1280 | 1430 | 1520 | 2120 | 2770 | 3030 | 4600 | 5300 |
| 2026-05-06 14:15 | 3.77 | 2220 | 6600 (1960) | 1050 (1965) | 2430 | 1210 | 1280 | 1430 | 1520 | 2120 | 2770 | 3030 | 4600 | 5300 |
| 2026-05-06 13:15 | 3.76 | 2170 | 6600 (1960) | 1050 (1965) | 2430 | 1210 | 1280 | 1430 | 1520 | 2120 | 2770 | 3030 | 4600 | 5300 |
| 2026-05-06 12:15 | 3.75 | 2130 | 6600 (1960) | 1050 (1965) | 2430 | 1210 | 1280 | 1430 | 1520 | 2120 | 2770 | 3030 | 4600 | 5300 |
| 2026-05-06 11:15 | 3.74 | 2080 | 6600 (1960) | 1050 (1965) | 2430 | 1210 | 1280 | 1430 | 1520 | 2120 | 2770 | 3030 | 4600 | 5300 |
| 2026-05-06 10:15 | 3.73 | 2040 | 6600 (1960) | 1050 (1965) | 2430 | 1210 | 1280 | 1430 | 1520 | 2120 | 2770 | 3030 | 4600 | 5300 |
| 2026-05-06 09:15 | 3.70 | 1910 | 6600 (1960) | 1050 (1965) | 2430 | 1210 | 1280 | 1430 | 1520 | 2120 | 2770 | 3030 | 4600 | 5300 |
| 2026-05-06 08:15 | 3.65 | 1710 | 6600 (1960) | 1050 (1965) | 2430 | 1210 | 1280 | 1430 | 1520 | 2120 | 2770 | 3030 | 4600 | 5300 |
| 2026-05-06 07:15 | 3.64 | 1670 | 6600 (1960) | 1050 (1965) | 2430 | 1210 | 1280 | 1430 | 1520 | 2120 | 2770 | 3030 | 4600 | 5300 |
| 2026-05-06 06:15 | 3.65 | 1710 | 6600 (1960) | 1050 (1965) | 2430 | 1210 | 1280 | 1430 | 1520 | 2120 | 2770 | 3030 | 4600 | 5300 |
| 2026-05-06 05:15 | 3.64 | 1670 | 6600 (1960) | 1050 (1965) | 2430 | 1210 | 1280 | 1430 | 1520 | 2120 | 2770 | 3030 | 4600 | 5300 |
| 2026-05-06 04:15 | 3.64 | 1670 | 6600 (1960) | 1050 (1965) | 2430 | 1210 | 1280 | 1430 | 1520 | 2120 | 2770 | 3030 | 4600 | 5300 |
| 2026-05-06 03:15 | 3.62 | 1590 | 6600 (1960) | 1050 (1965) | 2430 | 1210 | 1280 | 1430 | 1520 | 2120 | 2770 | 3030 | 4600 | 5300 |
| 2026-05-06 02:15 | 3.61 | 1560 | 6600 (1960) | 1050 (1965) | 2430 | 1210 | 1280 | 1430 | 1520 | 2120 | 2770 | 3030 | 4600 | 5300 |
| 2026-05-06 01:15 | 3.60 | 1520 | 6600 (1960) | 1050 (1965) | 2430 | 1210 | 1280 | 1430 | 1520 | 2120 | 2770 | 3030 | 4600 | 5300 |
| 2026-05-06 00:15 | 3.59 | 1490 | 6600 (1960) | 1050 (1965) | 2430 | 1210 | 1280 | 1430 | 1520 | 2120 | 2770 | 3030 | 4600 | 5300 |
| 2026-05-05 23:15 | 3.58 | 1460 | 6600 (1960) | 1050 (1965) | 2430 | 1210 | 1280 | 1430 | 1520 | 2120 | 2770 | 3030 | 4600 | 5300 |
| 2026-05-05 22:15 | 3.58 | 1460 | 7220 (2020) | 1050 (2005) | 2430 | 1220 | 1340 | 1510 | 1590 | 2120 | 2870 | 3010 | 3960 | 5250 |
| 2026-05-05 21:15 | 3.58 | 1460 | 7220 (2020) | 1050 (2005) | 2430 | 1220 | 1340 | 1510 | 1590 | 2120 | 2870 | 3010 | 3960 | 5250 |
| 2026-05-05 20:15 | 3.59 | 1490 | 7220 (2020) | 1050 (2005) | 2430 | 1220 | 1340 | 1510 | 1590 | 2120 | 2870 | 3010 | 3960 | 5250 |
| 2026-05-05 19:15 | 3.60 | 1520 | 7220 (2020) | 1050 (2005) | 2430 | 1220 | 1340 | 1510 | 1590 | 2120 | 2870 | 3010 | 3960 | 5250 |
| 2026-05-05 18:15 | 3.62 | 1590 | 7220 (2020) | 1050 (2005) | 2430 | 1220 | 1340 | 1510 | 1590 | 2120 | 2870 | 3010 | 3960 | 5250 |
| 2026-05-05 17:15 | 3.64 | 1670 | 7220 (2020) | 1050 (2005) | 2430 | 1220 | 1340 | 1510 | 1590 | 2120 | 2870 | 3010 | 3960 | 5250 |
| 2026-05-05 16:15 | 3.64 | 1670 | 7220 (2020) | 1050 (2005) | 2430 | 1220 | 1340 | 1510 | 1590 | 2120 | 2870 | 3010 | 3960 | 5250 |
| 2026-05-05 15:15 | 3.63 | 1630 | 7220 (2020) | 1050 (2005) | 2430 | 1220 | 1340 | 1510 | 1590 | 2120 | 2870 | 3010 | 3960 | 5250 |
| 2026-05-05 14:15 | 3.64 | 1670 | 7220 (2020) | 1050 (2005) | 2430 | 1220 | 1340 | 1510 | 1590 | 2120 | 2870 | 3010 | 3960 | 5250 |
| 2026-05-05 13:15 | 3.64 | 1670 | 7220 (2020) | 1050 (2005) | 2430 | 1220 | 1340 | 1510 | 1590 | 2120 | 2870 | 3010 | 3960 | 5250 |
| 2026-05-05 12:15 | 3.63 | 1630 | 7220 (2020) | 1050 (2005) | 2430 | 1220 | 1340 | 1510 | 1590 | 2120 | 2870 | 3010 | 3960 | 5250 |
| 2026-05-05 11:15 | 3.63 | 1630 | 7220 (2020) | 1050 (2005) | 2430 | 1220 | 1340 | 1510 | 1590 | 2120 | 2870 | 3010 | 3960 | 5250 |
| 2026-05-05 10:15 | 3.60 | 1520 | 7220 (2020) | 1050 (2005) | 2430 | 1220 | 1340 | 1510 | 1590 | 2120 | 2870 | 3010 | 3960 | 5250 |
| 2026-05-05 09:15 | 3.58 | 1460 | 7220 (2020) | 1050 (2005) | 2430 | 1220 | 1340 | 1510 | 1590 | 2120 | 2870 | 3010 | 3960 | 5250 |
| 2026-05-05 08:15 | 3.58 | 1460 | 7220 (2020) | 1050 (2005) | 2430 | 1220 | 1340 | 1510 | 1590 | 2120 | 2870 | 3010 | 3960 | 5250 |
| 2026-05-05 07:15 | 3.56 | 1400 | 7220 (2020) | 1050 (2005) | 2430 | 1220 | 1340 | 1510 | 1590 | 2120 | 2870 | 3010 | 3960 | 5250 |
| 2026-05-05 06:15 | 3.55 | 1370 | 7220 (2020) | 1050 (2005) | 2430 | 1220 | 1340 | 1510 | 1590 | 2120 | 2870 | 3010 | 3960 | 5250 |
| 2026-05-05 05:15 | 3.56 | 1400 | 7220 (2020) | 1050 (2005) | 2430 | 1220 | 1340 | 1510 | 1590 | 2120 | 2870 | 3010 | 3960 | 5250 |
| 2026-05-05 04:15 | 3.56 | 1400 | 7220 (2020) | 1050 (2005) | 2430 | 1220 | 1340 | 1510 | 1590 | 2120 | 2870 | 3010 | 3960 | 5250 |
| 2026-05-05 03:15 | 3.54 | 1340 | 7220 (2020) | 1050 (2005) | 2430 | 1220 | 1340 | 1510 | 1590 | 2120 | 2870 | 3010 | 3960 | 5250 |
| 2026-05-05 02:15 | 3.53 | 1320 | 7220 (2020) | 1050 (2005) | 2430 | 1220 | 1340 | 1510 | 1590 | 2120 | 2870 | 3010 | 3960 | 5250 |
| 2026-05-05 01:15 | 3.52 | 1290 | 7220 (2020) | 1050 (2005) | 2430 | 1220 | 1340 | 1510 | 1590 | 2120 | 2870 | 3010 | 3960 | 5250 |
| 2026-05-05 00:15 | 3.51 | 1260 | 7220 (2020) | 1050 (2005) | 2430 | 1220 | 1340 | 1510 | 1590 | 2120 | 2870 | 3010 | 3960 | 5250 |
| 2026-05-04 23:15 | 3.50 | 1230 | 7220 (2020) | 1050 (2005) | 2430 | 1220 | 1340 | 1510 | 1590 | 2120 | 2870 | 3010 | 3960 | 5250 |
| 2026-05-04 22:15 | 3.49 | 1210 | 6200 (1988) | 829 (2005) | 2430 | 1200 | 1320 | 1570 | 1640 | 2120 | 3060 | 3120 | 4230 | 5060 |
| 2026-05-04 21:15 | 3.50 | 1230 | 6200 (1988) | 829 (2005) | 2430 | 1200 | 1320 | 1570 | 1640 | 2120 | 3060 | 3120 | 4230 | 5060 |
| 2026-05-04 20:15 | 3.52 | 1290 | 6200 (1988) | 829 (2005) | 2430 | 1200 | 1320 | 1570 | 1640 | 2120 | 3060 | 3120 | 4230 | 5060 |
| 2026-05-04 19:15 | 3.54 | 1340 | 6200 (1988) | 829 (2005) | 2430 | 1200 | 1320 | 1570 | 1640 | 2120 | 3060 | 3120 | 4230 | 5060 |
| 2026-05-04 18:15 | 3.54 | 1340 | 6200 (1988) | 829 (2005) | 2430 | 1200 | 1320 | 1570 | 1640 | 2120 | 3060 | 3120 | 4230 | 5060 |
| 2026-05-04 17:15 | 3.56 | 1400 | 6200 (1988) | 829 (2005) | 2430 | 1200 | 1320 | 1570 | 1640 | 2120 | 3060 | 3120 | 4230 | 5060 |
| 2026-05-04 16:15 | 3.58 | 1460 | 6200 (1988) | 829 (2005) | 2430 | 1200 | 1320 | 1570 | 1640 | 2120 | 3060 | 3120 | 4230 | 5060 |
| 2026-05-04 15:15 | 3.60 | 1520 | 6200 (1988) | 829 (2005) | 2430 | 1200 | 1320 | 1570 | 1640 | 2120 | 3060 | 3120 | 4230 | 5060 |
| 2026-05-04 14:15 | 3.59 | 1490 | 6200 (1988) | 829 (2005) | 2430 | 1200 | 1320 | 1570 | 1640 | 2120 | 3060 | 3120 | 4230 | 5060 |
| 2026-05-04 13:15 | 3.57 | 1430 | 6200 (1988) | 829 (2005) | 2430 | 1200 | 1320 | 1570 | 1640 | 2120 | 3060 | 3120 | 4230 | 5060 |
| 2026-05-04 12:15 | 3.56 | 1400 | 6200 (1988) | 829 (2005) | 2430 | 1200 | 1320 | 1570 | 1640 | 2120 | 3060 | 3120 | 4230 | 5060 |
| 2026-05-04 11:15 | 3.55 | 1370 | 6200 (1988) | 829 (2005) | 2430 | 1200 | 1320 | 1570 | 1640 | 2120 | 3060 | 3120 | 4230 | 5060 |
| 2026-05-04 10:15 | 3.57 | 1430 | 6200 (1988) | 829 (2005) | 2430 | 1200 | 1320 | 1570 | 1640 | 2120 | 3060 | 3120 | 4230 | 5060 |
| 2026-05-04 09:15 | 3.55 | 1370 | 6200 (1988) | 829 (2005) | 2430 | 1200 | 1320 | 1570 | 1640 | 2120 | 3060 | 3120 | 4230 | 5060 |
| 2026-05-04 08:15 | 3.53 | 1320 | 6200 (1988) | 829 (2005) | 2430 | 1200 | 1320 | 1570 | 1640 | 2120 | 3060 | 3120 | 4230 | 5060 |
| 2026-05-04 07:15 | 3.51 | 1260 | 6200 (1988) | 829 (2005) | 2430 | 1200 | 1320 | 1570 | 1640 | 2120 | 3060 | 3120 | 4230 | 5060 |
| 2026-05-04 06:15 | 3.48 | 1180 | 6200 (1988) | 829 (2005) | 2430 | 1200 | 1320 | 1570 | 1640 | 2120 | 3060 | 3120 | 4230 | 5060 |
| 2026-05-04 05:15 | 3.48 | 1180 | 6200 (1988) | 829 (2005) | 2430 | 1200 | 1320 | 1570 | 1640 | 2120 | 3060 | 3120 | 4230 | 5060 |
| 2026-05-04 04:15 | 3.48 | 1180 | 6200 (1988) | 829 (2005) | 2430 | 1200 | 1320 | 1570 | 1640 | 2120 | 3060 | 3120 | 4230 | 5060 |
| 2026-05-04 03:15 | 3.49 | 1210 | 6200 (1988) | 829 (2005) | 2430 | 1200 | 1320 | 1570 | 1640 | 2120 | 3060 | 3120 | 4230 | 5060 |
| 2026-05-04 02:15 | 3.50 | 1230 | 6200 (1988) | 829 (2005) | 2430 | 1200 | 1320 | 1570 | 1640 | 2120 | 3060 | 3120 | 4230 | 5060 |
| 2026-05-04 01:15 | 3.51 | 1260 | 6200 (1988) | 829 (2005) | 2430 | 1200 | 1320 | 1570 | 1640 | 2120 | 3060 | 3120 | 4230 | 5060 |
| 2026-05-04 00:15 | 3.52 | 1290 | 6200 (1988) | 829 (2005) | 2430 | 1200 | 1320 | 1570 | 1640 | 2120 | 3060 | 3120 | 4230 | 5060 |
| 2026-05-03 23:15 | 3.52 | 1290 | 6200 (1988) | 829 (2005) | 2430 | 1200 | 1320 | 1570 | 1640 | 2120 | 3060 | 3120 | 4230 | 5060 |
| 2026-05-03 22:15 | 3.50 | 1230 | 8900 (1964) | 787 (2005) | 2510 | 1130 | 1330 | 1560 | 1670 | 2170 | 2910 | 3200 | 4010 | 5270 |
| 2026-05-03 21:15 | 3.49 | 1210 | 8900 (1964) | 787 (2005) | 2510 | 1130 | 1330 | 1560 | 1670 | 2170 | 2910 | 3200 | 4010 | 5270 |
| 2026-05-03 20:15 | 3.48 | 1180 | 8900 (1964) | 787 (2005) | 2510 | 1130 | 1330 | 1560 | 1670 | 2170 | 2910 | 3200 | 4010 | 5270 |
| 2026-05-03 19:15 | 3.51 | 1260 | 8900 (1964) | 787 (2005) | 2510 | 1130 | 1330 | 1560 | 1670 | 2170 | 2910 | 3200 | 4010 | 5270 |
| 2026-05-03 18:15 | 3.55 | 1370 | 8900 (1964) | 787 (2005) | 2510 | 1130 | 1330 | 1560 | 1670 | 2170 | 2910 | 3200 | 4010 | 5270 |
| 2026-05-03 17:15 | 3.57 | 1430 | 8900 (1964) | 787 (2005) | 2510 | 1130 | 1330 | 1560 | 1670 | 2170 | 2910 | 3200 | 4010 | 5270 |
| 2026-05-03 16:15 | 3.57 | 1430 | 8900 (1964) | 787 (2005) | 2510 | 1130 | 1330 | 1560 | 1670 | 2170 | 2910 | 3200 | 4010 | 5270 |
| 2026-05-03 15:15 | 3.58 | 1460 | 8900 (1964) | 787 (2005) | 2510 | 1130 | 1330 | 1560 | 1670 | 2170 | 2910 | 3200 | 4010 | 5270 |
| 2026-05-03 14:15 | 3.59 | 1490 | 8900 (1964) | 787 (2005) | 2510 | 1130 | 1330 | 1560 | 1670 | 2170 | 2910 | 3200 | 4010 | 5270 |
| 2026-05-03 13:15 | 3.60 | 1520 | 8900 (1964) | 787 (2005) | 2510 | 1130 | 1330 | 1560 | 1670 | 2170 | 2910 | 3200 | 4010 | 5270 |
| 2026-05-03 12:15 | 3.58 | 1460 | 8900 (1964) | 787 (2005) | 2510 | 1130 | 1330 | 1560 | 1670 | 2170 | 2910 | 3200 | 4010 | 5270 |
| 2026-05-03 11:15 | 3.57 | 1430 | 8900 (1964) | 787 (2005) | 2510 | 1130 | 1330 | 1560 | 1670 | 2170 | 2910 | 3200 | 4010 | 5270 |
| 2026-05-03 10:15 | 3.55 | 1370 | 8900 (1964) | 787 (2005) | 2510 | 1130 | 1330 | 1560 | 1670 | 2170 | 2910 | 3200 | 4010 | 5270 |
| 2026-05-03 09:15 | 3.52 | 1290 | 8900 (1964) | 787 (2005) | 2510 | 1130 | 1330 | 1560 | 1670 | 2170 | 2910 | 3200 | 4010 | 5270 |
| 2026-05-03 08:15 | 3.54 | 1340 | 8900 (1964) | 787 (2005) | 2510 | 1130 | 1330 | 1560 | 1670 | 2170 | 2910 | 3200 | 4010 | 5270 |
| 2026-05-03 07:15 | 3.52 | 1290 | 8900 (1964) | 787 (2005) | 2510 | 1130 | 1330 | 1560 | 1670 | 2170 | 2910 | 3200 | 4010 | 5270 |
| 2026-05-03 06:15 | 3.50 | 1230 | 8900 (1964) | 787 (2005) | 2510 | 1130 | 1330 | 1560 | 1670 | 2170 | 2910 | 3200 | 4010 | 5270 |
| 2026-05-03 05:15 | 3.49 | 1210 | 8900 (1964) | 787 (2005) | 2510 | 1130 | 1330 | 1560 | 1670 | 2170 | 2910 | 3200 | 4010 | 5270 |
| 2026-05-03 04:15 | 3.48 | 1180 | 8900 (1964) | 787 (2005) | 2510 | 1130 | 1330 | 1560 | 1670 | 2170 | 2910 | 3200 | 4010 | 5270 |
| 2026-05-03 03:15 | 3.49 | 1210 | 8900 (1964) | 787 (2005) | 2510 | 1130 | 1330 | 1560 | 1670 | 2170 | 2910 | 3200 | 4010 | 5270 |
| 2026-05-03 02:15 | 3.49 | 1210 | 8900 (1964) | 787 (2005) | 2510 | 1130 | 1330 | 1560 | 1670 | 2170 | 2910 | 3200 | 4010 | 5270 |
| 2026-05-03 01:15 | 3.48 | 1180 | 8900 (1964) | 787 (2005) | 2510 | 1130 | 1330 | 1560 | 1670 | 2170 | 2910 | 3200 | 4010 | 5270 |
| 2026-05-03 00:15 | 3.49 | 1210 | 8900 (1964) | 787 (2005) | 2510 | 1130 | 1330 | 1560 | 1670 | 2170 | 2910 | 3200 | 4010 | 5270 |
| 2026-05-02 23:15 | 3.49 | 1210 | 8900 (1964) | 787 (2005) | 2510 | 1130 | 1330 | 1560 | 1670 | 2170 | 2910 | 3200 | 4010 | 5270 |
A total of 176 rows are displayed for years 1938 through 2025.